GW4659 Weather Reports


time (UTC)temp
C
wind
direction
speed
KPH
gust
KPH
rain 1hr
cm
rain 24hr
cm
rain mn
cm
humidity
%
barometer
mb
20260510213959 26 129 0.0 3.2 0.00 0.00 0.00 62 1017.5
20260510213000 26 127 0.0 3.2 0.00 0.00 0.00 62 1017.4
20260510211959 26 97 1.6 4.8 0.00 0.00 0.00 62 1017.3
20260510211000 27 269 0.0 1.6 0.00 0.00 0.00 61 1017.4
20260510210004 26 268 0.0 3.2 0.00 0.00 0.00 61 1017.4
20260510205002 26 276 0.0 3.2 0.00 0.00 0.00 64 1017.5
20260510204001 26 285 0.0 1.6 0.00 0.00 0.00 63 1017.4
20260510203001 26 285 1.6 4.8 0.00 0.00 0.00 65 1017.5
20260510202002 27 283 0.0 3.2 0.00 0.00 0.00 59 1017.6
20260510201001 27 271 0.0 4.8 0.00 0.00 0.00 63 1017.6
20260510200000 26 262 1.6 6.4 0.00 0.00 0.00 64 1017.7
20260510195000 26 230 0.0 3.2 0.00 0.00 0.00 63 1017.7
20260510194001 25 124 0.0 1.6 0.00 0.00 0.00 64 1017.8
20260510192959 25 153 0.0 3.2 0.00 0.00 0.00 65 1017.9
20260510192001 26 290 0.0 3.2 0.00 0.00 0.00 63 1017.9
20260510191000 26 251 1.6 6.4 0.00 0.00 0.00 64 1017.9
20260510190000 25 115 0.0 3.2 0.00 0.00 0.00 68 1018.1
20260510185002 24 283 1.6 3.2 0.00 0.00 0.00 73 1018.3
20260510184001 25 287 1.6 3.2 0.00 0.00 0.00 70 1018.4
20260510182000 25 255 0.0 3.2 0.00 0.00 0.00 70 1018.3
20260510181000 25 281 0.0 1.6 0.00 0.00 0.00 72 1018.5
20260510174000 24 238 0.0 3.2 0.00 0.00 0.00 72 1018.9
20260510173000 23 119 0.0 3.2 0.00 0.00 0.00 74 1019.0
20260510172000 23 88 0.0 4.8 0.00 0.00 0.00 78 1019.1
20260510165000 21 360 0.0 1.6 0.00 0.00 0.00 80 1019.5
20260510164000 21 44 0.0 3.2 0.00 0.00 0.00 80 1019.3
20260510162959 21 134 0.0 3.2 0.00 0.00 0.00 82 1019.1
20260510162000 21 284 0.0 3.2 0.00 0.00 0.00 81 1019.1
20260510160002 21 77 0.0 3.2 0.00 0.00 0.00 82 1019.3
20260510155000 20 273 0.0 1.6 0.00 0.00 0.00 84 1019.2
20260510154004 20 274 0.0 3.2 0.00 0.00 0.00 85 1019.3
20260510153001 20 233 0.0 3.2 0.00 0.00 0.00 85 1019.2
20260510152001 20 233 0.0 1.6 0.00 0.00 0.00 87 1019.2
20260510150000 19 133 0.0 3.2 0.00 0.00 0.00 88 1019.2
20260510145000 19 240 0.0 3.2 0.00 0.00 0.00 89 1019.2
20260510144000 18 201 0.0 1.6 0.00 0.00 0.00 90 1019.4
20260510143000 18 202 0.0 4.8 0.00 0.00 0.00 91 1019.1
20260510141959 18 118 0.0 1.6 0.00 0.00 0.00 91 1019.3
20260510140959 18 119 0.0 1.6 0.00 0.00 0.00 92 1019.3
20260510140002 18 119 0.0 1.6 0.00 0.00 0.00 94 1019.2
20260510133959 17 118 0.0 1.6 0.00 0.00 0.00 95 1019.1
20260510133000 17 115 0.0 0.0 0.00 0.00 0.00 96 1019.1
20260510132000 17 115 0.0 1.6 0.00 0.00 0.00 96 1018.8
20260510131000 17 119 0.0 0.0 0.00 0.00 0.00 97 1018.7
20260510130002 17 119 0.0 0.0 0.00 0.00 0.00 97 1018.8
20260510125000 17 119 0.0 0.0 0.00 0.00 0.00 98 1018.8
20260510123959 17 119 0.0 0.0 0.00 0.00 0.00 98 1018.5
20260510122959 17 119 0.0 0.0 0.00 0.00 0.00 98 1018.5
20260510122001 17 119 0.0 0.0 0.00 0.00 0.00 98 1018.4
20260510115959 16 119 0.0 0.0 0.00 0.00 0.00 98 1018.0
20260510114959 16 119 0.0 0.0 0.00 0.00 0.00 98 1017.8
20260510113959 16 119 0.0 0.0 0.00 0.00 0.00 98 1017.6
20260510112959 16 119 0.0 1.6 0.00 0.00 0.00 98 1017.3
20260510111958 16 119 0.0 3.2 0.00 0.00 0.00 98 1017.1
20260510110959 16 120 0.0 1.6 0.00 0.00 0.00 98 1017.0
20260510110002 16 120 0.0 1.6 0.00 0.00 0.00 98 1016.9
20260510102959 16 275 0.0 1.6 0.00 0.00 0.00 98 1016.3
20260510102000 16 275 0.0 0.0 0.00 0.00 0.00 98 1016.3
20260510101000 16 275 0.0 1.6 0.00 0.00 0.00 98 1016.4
20260510094959 16 275 0.0 1.6 0.00 0.00 0.00 99 1015.9
20260510093959 16 311 0.0 0.0 0.00 0.00 0.00 99 1015.7
20260510092959 16 311 0.0 0.0 0.00 0.00 0.00 99 1015.6
20260510091959 16 311 0.0 0.0 0.00 0.00 0.00 99 1015.5
20260510091000 15 311 0.0 0.0 0.00 0.00 0.00 98 1015.4
20260510090002 15 311 0.0 0.0 0.00 0.00 0.00 98 1015.3
20260510084959 15 311 0.0 0.0 0.00 0.00 0.00 98 1015.4
20260510083958 15 311 0.0 0.0 0.00 0.00 0.00 98 1015.2
20260510083000 15 311 0.0 0.0 0.00 0.00 0.00 97 1015.1
20260510081959 15 311 0.0 0.0 0.00 0.00 0.00 97 1015.0
20260510080959 15 311 0.0 0.0 0.00 0.00 0.00 97 1015.0
20260510074959 16 311 0.0 0.0 0.00 0.00 0.00 98 1014.9
20260510073959 16 311 0.0 0.0 0.00 0.00 0.00 98 1014.9
20260510072959 16 311 0.0 0.0 0.00 0.00 0.00 98 1014.9
20260510072000 16 311 0.0 0.0 0.00 0.00 0.00 98 1015.1
20260510070959 16 311 0.0 0.0 0.00 0.00 0.00 98 1015.2
20260510070001 16 311 0.0 0.0 0.00 0.00 0.00 98 1015.2
20260510064959 16 311 0.0 0.0 0.00 0.00 0.00 98 1015.3
20260510063959 16 311 0.0 0.0 0.00 0.00 0.00 98 1015.4
20260510062959 16 311 0.0 0.0 0.00 0.00 0.00 98 1015.6
20260510061958 15 311 0.0 0.0 0.00 0.00 0.00 98 1015.5
20260510060959 15 311 0.0 0.0 0.00 0.00 0.00 98 1015.5
20260510060001 15 311 0.0 0.0 0.00 0.00 0.00 98 1015.4
20260510055001 15 311 0.0 0.0 0.00 0.00 0.00 97 1015.4
20260510054000 15 311 0.0 0.0 0.00 0.00 0.00 97 1015.5
20260510053000 15 311 0.0 0.0 0.00 0.00 0.00 97 1015.6
20260510052001 15 311 0.0 0.0 0.00 0.00 0.00 97 1015.6
20260510050959 16 311 0.0 0.0 0.00 0.00 0.00 97 1015.6
20260510045001 16 311 0.0 0.0 0.00 0.00 0.00 97 1015.6
20260510044001 16 311 0.0 0.0 0.00 0.00 0.00 96 1015.6
20260510043001 16 311 0.0 0.0 0.00 0.00 0.00 96 1015.6
20260510042001 16 311 0.0 0.0 0.00 0.00 0.00 96 1015.7
20260510041001 16 311 0.0 0.0 0.00 0.00 0.00 96 1015.7
20260510040002 16 311 0.0 0.0 0.00 0.00 0.00 95 1015.7
20260510035000 16 311 0.0 0.0 0.00 0.00 0.00 95 1015.8
20260510034001 17 311 0.0 0.0 0.00 0.00 0.00 95 1015.7
20260510031001 17 311 0.0 0.0 0.00 0.00 0.00 94 1015.7
20260510030003 17 311 0.0 0.0 0.00 0.00 0.00 93 1015.6
20260510025002 18 311 0.0 0.0 0.00 0.00 0.00 94 1015.7
20260510023002 18 311 0.0 0.0 0.00 0.00 0.00 93 1015.5
20260510022002 18 311 0.0 0.0 0.00 0.00 0.00 92 1015.3
20260510021002 18 311 0.0 0.0 0.00 0.00 0.00 92 1015.2
20260510015001 18 73 0.0 0.0 0.00 0.00 0.00 91 1014.8
20260510014000 18 73 0.0 1.6 0.00 0.00 0.00 91 1014.5
20260510013001 19 74 0.0 3.2 0.00 0.00 0.00 91 1014.5
20260510011001 19 122 0.0 1.6 0.00 0.00 0.00 90 1014.2
20260510010000 19 124 0.0 1.6 0.00 0.00 0.00 89 1013.9
20260510005000 19 95 0.0 3.2 0.00 0.00 0.00 89 1013.8
20260510004001 20 111 0.0 1.6 0.00 0.00 0.00 88 1013.8
20260510003000 20 111 0.0 1.6 0.00 0.00 0.00 87 1013.9
20260510002000 20 111 0.0 1.6 0.00 0.00 0.00 87 1013.9
20260510001000 20 114 0.0 1.6 0.00 0.00 0.00 86 1013.7
20260510000000 20 114 0.0 1.6 0.00 0.00 0.00 86 1013.4
20260509235000 20 114 0.0 1.6 0.00 0.00 0.00 84 1013.3
20260509233000 21 101 0.0 0.0 0.00 0.00 0.00 82 1013.1
20260509232000 21 101 0.0 1.6 0.00 0.00 0.00 81 1013.2
20260509231001 21 101 0.0 0.0 0.00 0.00 0.00 80 1013.1
20260509230004 21 101 0.0 1.6 0.00 0.00 0.00 79 1013.0
20260509225000 22 101 0.0 0.0 0.00 0.00 0.00 79 1012.7
20260509224000 22 101 0.0 0.0 0.00 0.00 0.00 78 1012.6
20260509223000 22 101 0.0 1.6 0.00 0.00 0.00 78 1012.5
20260509222000 22 100 0.0 1.6 0.00 0.00 0.00 77 1012.5
20260509221000 22 98 0.0 1.6 0.00 0.00 0.00 76 1012.5
20260509220002 22 98 0.0 1.6 0.00 0.00 0.00 76 1012.7
20260509215000 22 80 0.0 3.2 0.00 0.00 0.00 75 1012.6